Location: Montbazon
(47.2835°N, 0.6999°E)
Time: 15:46:12
(UTC+00:00)

CZ-4 R/B - Pass Details

Date: 08 November 2025
Orbit: 675 x 744 km, 98.7° (Epoch: 12 December)

Event Time Altitude Azimuth Distance (km) Brightness Sun altitude
Rises 05:29:18 0° 11° (N) 3,177 7.2 -14.1°
Reaches altitude 10° 05:31:38 10° 7° (N) 2,242 6.4 -13.7°
Maximum altitude 05:36:27 58° 290° (WNW) 845 3.9 -12.9°
Drops below altitude 10° 05:41:09 10° 212° (SSW) 2,185 6.2 -12.1°
Sets 05:43:24 0° 208° (SSW) 3,088 7.0 -11.7°
